I0ABU-3 Weather Reports


time (UTC)temp
C
wind
direction
speed
KPH
gust
KPH
rain 1hr
cm
rain 24hr
cm
rain mn
cm
humidity
%
barometer
mb
20260507103004 20 201 6.4 16.1 0.00 0.10 0.00 64 1011.8
20260507101530 19 133 8.0 14.5 0.00 0.10 0.00 66 1011.7
20260507100054 19 178 3.2 12.9 0.00 0.10 0.00 68 1011.8
20260507094605 18 196 8.0 12.9 0.00 0.10 0.00 68 1011.9
20260507093021 18 186 6.4 12.9 0.00 0.10 0.00 68 1011.8
20260507091551 18 217 4.8 11.3 0.00 0.10 0.00 69 1011.6
20260507090008 17 202 6.4 14.5 0.00 0.10 0.00 70 1011.8
20260507084531 18 184 6.4 9.7 0.00 0.10 0.00 69 1011.8
20260507083056 18 181 1.6 6.4 0.00 0.10 0.00 71 1011.7
20260507081533 17 182 4.8 11.3 0.00 0.10 0.00 71 1011.8
20260507080038 17 192 1.6 6.4 0.00 0.10 0.00 71 1011.8
20260507074611 17 138 3.2 8.0 0.00 0.10 0.00 70 1011.9
20260507073023 17 299 0.0 6.4 0.00 0.10 0.00 73 1012.1
20260507071549 16 225 4.8 11.3 0.00 0.10 0.00 75 1012.3
20260507070011 17 194 3.2 6.4 0.00 0.10 0.00 71 1012.2
20260507064534 16 321 1.6 8.0 0.00 0.18 0.00 73 1012.0
20260507063041 16 92 0.0 9.7 0.00 0.18 0.00 76 1012.0
20260507061502 16 355 4.8 11.3 0.00 0.18 0.00 76 1011.9
20260507060027 15 21 0.0 6.4 0.00 0.18 0.00 81 1011.9
20260507054636 14 21 0.0 1.6 0.00 0.25 0.00 83 1012.0
20260507053012 13 21 0.0 6.4 0.00 0.25 0.00 84 1011.8
20260507051537 13 21 3.2 4.8 0.00 0.25 0.00 84 1011.9
20260507050052 13 21 3.2 8.0 0.00 0.25 0.00 84 1011.8
20260507044507 13 11 3.2 6.4 0.00 0.25 0.00 84 1011.8
20260507043032 13 360 3.2 6.4 0.00 0.25 0.00 83 1011.6
20260507041545 13 360 1.6 4.8 0.00 0.25 0.00 82 1011.6
20260507040049 13 360 1.6 4.8 0.00 0.25 0.00 81 1011.5
20260507034513 13 360 1.6 4.8 0.00 0.25 0.00 82 1011.3
20260507033034 13 360 1.6 4.8 0.00 0.25 0.00 81 1011.4
20260507031601 13 360 1.6 4.8 0.00 0.25 0.00 80 1011.3
20260507030002 13 360 1.6 4.8 0.00 0.25 0.00 80 1011.3
20260507024532 13 360 0.0 3.2 0.00 0.25 0.00 79 1011.4
20260507023102 13 360 1.6 3.2 0.00 0.25 0.00 79 1011.4
20260507021512 13 360 0.0 3.2 0.00 0.25 0.00 79 1011.4
20260507020035 13 360 0.0 3.2 0.00 0.25 0.00 80 1011.3
20260507014606 13 23 1.6 6.4 0.00 0.25 0.00 81 1011.5
20260507013018 13 49 4.8 9.7 0.00 0.25 0.00 82 1011.3
20260507011545 13 355 3.2 6.4 0.00 0.25 0.00 81 1011.4
20260507010002 13 53 1.6 6.4 0.00 0.25 0.00 80 1011.5
20260507004528 13 5 3.2 8.0 0.00 0.25 0.00 79 1011.5
20260507003038 13 31 1.6 6.4 0.00 0.25 0.00 81 1011.5
20260507001543 13 82 1.6 4.8 0.00 0.25 0.00 85 1011.5
20260507000002 13 5 1.6 6.4 0.00 0.25 0.00 86 1011.5
20260506234527 12 16 0.0 4.8 0.00 0.25 0.00 86 1011.7
20260506233107 12 15 3.2 6.4 0.00 0.25 0.00 87 1011.8
20260506231511 12 36 3.2 8.0 0.00 0.25 0.00 87 1012.0
20260506230034 12 21 3.2 6.4 0.00 0.25 0.00 87 1012.2
20260506224545 12 12 4.8 9.7 0.00 0.25 0.00 87 1012.3
20260506223053 12 15 3.2 8.0 0.03 0.25 0.00 87 1012.3
20260506221518 13 19 4.8 14.5 0.05 0.25 0.00 86 1012.4
20260506220039 13 32 1.6 11.3 0.05 0.25 0.00 84 1012.5
20260506214551 14 96 1.6 9.7 0.05 0.25 0.25 80 1012.7
20260506213112 14 111 6.4 14.5 0.03 0.23 0.23 78 1012.8
20260506211518 13 74 1.6 4.8 0.00 0.20 0.20 82 1012.3
20260506210042 13 9 4.8 12.9 0.03 0.20 0.20 83 1012.0
20260506204554 13 355 4.8 9.7 0.03 0.20 0.20 84 1012.1
20260506203059 13 355 4.8 12.9 0.03 0.20 0.20 84 1012.3
20260506201518 14 20 1.6 4.8 0.03 0.20 0.20 82 1012.6
20260506200036 15 103 3.2 12.9 0.00 0.18 0.18 77 1012.7
20260506194540 15 86 4.8 11.3 0.00 0.18 0.18 75 1012.8
20260506193043 15 78 3.2 11.3 0.00 0.18 0.18 74 1012.7
20260506191601 15 129 3.2 12.9 0.00 0.18 0.18 72 1012.6
20260506190014 16 119 3.2 9.7 0.00 0.18 0.18 72 1012.5
20260506184538 16 105 3.2 6.4 0.00 0.18 0.18 71 1012.3
20260506183052 16 94 1.6 4.8 0.00 0.18 0.18 71 1012.2
20260506181511 16 144 1.6 4.8 0.00 0.18 0.18 72 1012.1
20260506180043 16 137 1.6 9.7 0.00 0.18 0.18 73 1011.9
20260506174601 16 127 3.2 6.4 0.00 0.18 0.18 73 1011.9
20260506173015 16 134 3.2 11.3 0.00 0.18 0.18 74 1011.8
20260506171541 16 148 1.6 8.0 0.00 0.18 0.18 73 1011.7
20260506170116 16 192 3.2 9.7 0.00 0.18 0.18 70 1011.8
20260506164525 16 196 4.8 9.7 0.00 0.18 0.18 69 1011.9
20260506163106 16 197 3.2 6.4 0.00 0.18 0.18 68 1011.8
20260506161509 17 172 3.2 8.0 0.00 0.18 0.18 67 1011.9
20260506160031 17 148 3.2 11.3 0.00 0.18 0.18 65 1012.0
20260506154619 17 198 6.4 12.9 0.00 0.18 0.18 64 1012.0
20260506153014 17 190 8.0 14.5 0.00 0.18 0.18 63 1012.2
20260506151541 17 196 6.4 14.5 0.00 0.18 0.18 65 1012.2
20260506144525 17 176 12.9 19.3 0.00 0.18 0.18 63 1012.1
20260506143043 17 198 11.3 22.5 0.00 0.18 0.18 61 1012.2
20260506141543 18 148 12.9 27.4 0.00 0.18 0.18 60 1012.4
20260506140104 18 169 12.9 24.1 0.00 0.18 0.18 60 1012.3
20260506134525 18 206 14.5 25.7 0.00 0.18 0.18 59 1012.2
20260506133033 18 200 12.9 25.7 0.00 0.18 0.18 58 1012.1
20260506131543 19 189 11.3 19.3 0.00 0.18 0.18 57 1012.1
20260506130002 19 222 11.3 19.3 0.00 0.18 0.18 53 1012.1
20260506124528 19 296 4.8 17.7 0.00 0.20 0.18 53 1012.1
20260506123037 19 139 8.0 19.3 0.00 0.20 0.18 55 1012.1
20260506121548 19 198 11.3 19.3 0.00 0.20 0.18 55 1012.0
20260506120007 19 164 1.6 17.7 0.03 0.20 0.18 56 1012.2
20260506114542 18 190 3.2 11.3 0.03 0.20 0.18 58 1012.2
20260506113041 18 205 8.0 16.1 0.03 0.20 0.18 57 1012.4
20260506111502 19 138 3.2 14.5 0.03 0.20 0.18 58 1012.2
20260506110030 18 173 9.7 16.1 0.00 0.18 0.15 59 1012.4
20260506104538 18 200 1.6 9.7 0.00 0.18 0.15 60 1012.6